Preview of NWS' New Version of Forecast
This preview is not operational and should not be used for support decisions.

Regional Weather Roundup (RWR)

Issued by National Weather Service (NWS)

                            
000
ASUS44 KJAN 180510
RWRMS 

MISSISSIPPI HOURLY WEATHER ROUNDUP
NATIONAL WEATHER SERVICE JACKSON MS
1200 AM CDT THU APR 18 2019

NOTE: "FAIR: INDICATES FEW OR NO CLOUDS BELOW 12,000 FEET WITH NO
SIGNIFICANT WEATHER AND/OR OBSTRUCTIONS TO VISIBILITY.

MSZ001>002-007>008-010>013-018>021-025>028-034>036-180600-
NORTHWEST MISSISSIPPI
  
CITY           SKY/WX    TMP DP  RH WIND       PRES   REMARKS
BATESVILLE       N/A     57  57 100 CALM      29.85F                  
CLARKSDALE     MOCLDY    64  64 100 SE7       29.83F                  
CLEVELAND      FAIR      67  65  94 SE7       29.83F                  
GREENWOOD      FAIR      61  59  93 CALM      29.84F                  
GREENVILLE     MOCLDY    69  62  78 S9        29.81F                  
OLIVE BRANCH   PTCLDY    61  61 100 S9        29.83F                  
OXFORD         FAIR      59  57  94 SE5       29.87F                  
TUNICA           N/A     63  59  88 S8        29.84F                  
WINONA         FAIR      60  60 100 CALM      29.86F                  
$$

MSZ003>006-009-014>017-022>024-029>033-037>039-180600-
NORTHEAST MISSISSIPPI
  
CITY           SKY/WX    TMP DP  RH WIND       PRES   REMARKS
ABERDEEN       FAIR      63  63 100 SE5       29.89F                  
COLUMBUS AFB   FAIR      62  56  81 SE6       29.88F                  
CORINTH        FAIR      64  55  72 S7        29.86F                  
GOLDN TRIANGLE FAIR      67  59  75 SE13      29.88F                  
STARKVILLE     FAIR      64  57  77 S7        29.89F                  
TUPELO         FAIR      63  57  81 CALM      29.87F                  
$$

MSZ040-058-180600-
CENTRAL MISSISSIPPI
  
CITY           SKY/WX    TMP DP  RH WIND       PRES   REMARKS
JACKSON INTL   FAIR      66  60  81 S10       29.87F                  
JACKSON HAWKNS FAIR      66  62  87 S8        29.88S                  
MADISON        FAIR      64  63  94 CALM      29.87F                  
MERIDIAN KEY   FAIR      68  58  70 S9        29.91S                  
MERIDIAN NAS   MOCLDY    67  58  72 S5        29.92R                  
RAYMOND        MOCLDY    68  66  94 SE5       29.87S                  
VICKSBURG VKS  PTCLDY    68  64  88 SE6       29.86F                  
$$

MSZ059>079-180600-
SOUTH MISSISSIPPI
  
CITY           SKY/WX    TMP DP  RH WIND       PRES   REMARKS
HATTIESBURG    FAIR      66  62  87 SE13      29.92F                  
LAUREL         CLEAR     66  61  84 SE10      29.90F                  
MCCOMB         CLOUDY    67  62  84 S10G20    29.89S                  
NATCHEZ        CLOUDY    69  63  81 S14       29.86F                  
PINE BELT      FAIR      65  62  90 SE15      29.90F                  
$$

MSZ080>082-180600-
COASTAL MISSISSIPPI
  
CITY           SKY/WX    TMP DP  RH WIND       PRES   REMARKS
BILOXI         MOCLDY    71  68  90 SE13G22   29.93F                  
PASCAGOULA     CLOUDY    72  67  84 SE12      29.94F                  
GULFPORT       MOCLDY    71  68  90 SE18G26   29.92F                  
$$

LAZ007>009-015>016-023>026-180600-
NORTHEAST LOUISIANA
  
CITY           SKY/WX    TMP DP  RH WIND       PRES   REMARKS
BASTROP        MOCLDY    69  68  98 SE3       29.81F                  
TALLULAH/VBURG MOCLDY    68  63  84 S7        29.85F                  
VIDALIA        FAIR      68  64  86 SE9       29.85F                  
$$